�������r�C�����j�^�v���󋵏��
Date,Time,5�C6���@���p�r�C��,����,����(m/s)
2023/05/14,00:00,3.6,��,6.2
2023/05/14,00:10,3.6,��쐼,7.3
2023/05/14,00:20,3.5,��,7.8
2023/05/14,00:30,3.6,��쐼,8.3
2023/05/14,00:40,3.4,��,8.0
2023/05/14,00:50,3.6,��,7.0
2023/05/14,01:00,3.6,��,7.6
2023/05/14,01:10,3.7,��,8.1
2023/05/14,01:20,3.8,��쐼,7.5
2023/05/14,01:30,3.6,��쐼,7.1
2023/05/14,01:40,3.7,��,7.1
2023/05/14,01:50,3.8,��쐼,6.3
2023/05/14,02:00,3.7,��,6.7
2023/05/14,02:10,3.6,��쐼,6.7
2023/05/14,02:20,3.7,��,5.6
2023/05/14,02:30,3.5,��쐼,5.8
2023/05/14,02:40,3.8,��,6.0
2023/05/14,02:50,3.6,��쐼,5.7
2023/05/14,03:00,3.5,��쐼,3.6
2023/05/14,03:10,3.6,��쐼,3.4
2023/05/14,03:20,3.6,��쐼,4.0
2023/05/14,03:30,3.5,��쐼,3.8
2023/05/14,03:40,3.7,��쐼,3.2
2023/05/14,03:50,3.7,��쐼,3.0
2023/05/14,04:00,3.6,��쐼,2.9
2023/05/14,04:10,3.6,��,2.3
2023/05/14,04:20,3.5,��쐼,1.5
2023/05/14,04:30,3.7,��쐼,1.5
2023/05/14,04:40,3.7,��,1.7
2023/05/14,04:50,3.5,��쓌,1.7
2023/05/14,05:00,3.8,��쓌,3.5
2023/05/14,05:10,3.7,��쓌,5.3
2023/05/14,05:20,3.8,��쓌,5.9
2023/05/14,05:30,3.7,��쓌,6.3
2023/05/14,05:40,3.6,��,6.5
2023/05/14,05:50,3.6,��,6.8
2023/05/14,06:00,3.7,��,6.7
2023/05/14,06:10,3.7,��,7.5
2023/05/14,06:20,3.7,��,6.0
2023/05/14,06:30,3.8,��쓌,6.7
2023/05/14,06:40,3.7,��쓌,7.0
2023/05/14,06:50,3.5,��쓌,7.3
2023/05/14,07:00,3.8,��,7.3
2023/05/14,07:10,3.6,��,7.8
2023/05/14,07:20,3.7,��,6.6
2023/05/14,07:30,3.6,��,5.8
2023/05/14,07:40,3.6,��,5.3
2023/05/14,07:50,3.7,��,5.8
2023/05/14,08:00,3.6,��,6.3
2023/05/14,08:10,3.7,��쓌,5.8
2023/05/14,08:20,3.6,��,7.3
2023/05/14,08:30,3.6,��,5.6
2023/05/14,08:40,3.6,��,7.7
2023/05/14,08:50,3.7,��쓌,7.2
2023/05/14,09:00,3.8,��쓌,9.9
2023/05/14,09:10,3.7,��쓌,7.8
2023/05/14,09:20,3.7,��쓌,9.6
2023/05/14,09:30,3.6,��쓌,10.2
2023/05/14,09:40,3.6,��쓌,10.0
2023/05/14,09:50,3.7,��쓌,9.0
2023/05/14,10:00,3.6,��쓌,8.1
2023/05/14,10:10,3.8,��쓌,8.6
2023/05/14,10:20,3.7,��쓌,8.5
2023/05/14,10:30,3.5,��쓌,9.2
2023/05/14,10:40,3.7,��쓌,10.2
2023/05/14,10:50,3.7,��쓌,11.3
2023/05/14,11:00,3.7,��쓌,10.6
2023/05/14,11:10,3.8,��쓌,9.4
2023/05/14,11:20,3.4,��쓌,9.7
2023/05/14,11:30,3.7,��쓌,11.0
2023/05/14,11:40,3.8,��쓌,9.8
2023/05/14,11:50,3.7,��쓌,10.8
2023/05/14,12:00,3.7,��쓌,11.0
2023/05/14,12:10,3.7,��쓌,10.6
2023/05/14,12:20,3.7,��쓌,11.4
2023/05/14,12:30,3.8,��쓌,11.6
2023/05/14,12:40,3.8,��,10.5
2023/05/14,12:50,3.8,��쓌,10.0
2023/05/14,13:00,3.5,��쓌,7.9
2023/05/14,13:10,3.7,��쓌,11.0
2023/05/14,13:20,3.9,��쓌,11.0
2023/05/14,13:30,3.8,��쓌,12.2
2023/05/14,13:40,3.7,��쓌,13.3
2023/05/14,13:50,3.5,��쓌,14.1
2023/05/14,14:00,3.8,��쓌,11.0
2023/05/14,14:10,3.5,��,12.8
2023/05/14,14:20,3.6,��,9.9
2023/05/14,14:30,3.5,��쓌,13.3
2023/05/14,14:40,3.7,��쓌,11.3
2023/05/14,14:50,3.7,��쓌,11.9
2023/05/14,15:00,3.5,��,10.7
2023/05/14,15:10,3.7,��쓌,8.5
2023/05/14,15:20,3.7,��,9.6
2023/05/14,15:30,3.6,��,7.5
2023/05/14,15:40,3.8,��,7.8
2023/05/14,15:50,3.7,��,6.2
2023/05/14,16:00,3.6,��,6.9
2023/05/14,16:10,3.5,��,7.3
2023/05/14,16:20,3.5,��,8.0
2023/05/14,16:30,3.8,��,6.8
2023/05/14,16:40,3.7,��,6.1
2023/05/14,16:50,3.7,��쓌,7.4
2023/05/14,17:00,3.6,��쓌,6.7
2023/05/14,17:10,3.6,��,10.9
2023/05/14,17:20,3.7,��,8.9
2023/05/14,17:30,3.8,��,9.0
2023/05/14,17:40,3.6,��,9.0
2023/05/14,17:50,3.7,��,9.3
2023/05/14,18:00,3.7,��,9.9
2023/05/14,18:10,3.7,��쓌,11.3
2023/05/14,18:20,3.8,��,7.8
2023/05/14,18:30,3.6,��,8.6
2023/05/14,18:40,3.7,��,8.7
2023/05/14,18:50,3.6,��,6.9
2023/05/14,19:00,3.5,��,7.3
2023/05/14,19:10,3.6,��,6.9
2023/05/14,19:20,3.8,��,6.7
2023/05/14,19:30,3.8,��,7.7
2023/05/14,19:40,3.5,��,7.9
2023/05/14,19:50,3.7,��쓌,8.8
2023/05/14,20:00,3.6,��,7.7
2023/05/14,20:10,3.6,��,7.7
2023/05/14,20:20,3.7,��,7.8
2023/05/14,20:30,3.8,��,7.8
2023/05/14,20:40,3.6,��,8.9
2023/05/14,20:50,3.7,��,7.8
2023/05/14,21:00,3.8,��,7.1
2023/05/14,21:10,3.6,��,9.2
2023/05/14,21:20,3.7,��,7.6
2023/05/14,21:30,3.7,��,8.2
2023/05/14,21:40,3.6,��,8.5
2023/05/14,21:50,3.6,��,8.1
2023/05/14,22:00,3.7,��,7.6
2023/05/14,22:10,3.6,��,7.9
2023/05/14,22:20,3.7,��,10.8
2023/05/14,22:30,3.7,��,9.3
2023/05/14,22:40,3.8,��,7.8
2023/05/14,22:50,3.7,��,7.4
2023/05/14,23:00,3.8,��,6.7
2023/05/14,23:10,3.5,��,7.0
2023/05/14,23:20,3.7,��,7.0
2023/05/14,23:30,3.7,��쓌,7.3
2023/05/14,23:40,3.8,��쓌,7.6
2023/05/14,23:50,3.6,��,7.6
